TITAN 3C TRANSTAGE R/B, 7324

Orbit data source: Space-Track

TITAN 3C TRANSTAGE R/B, 7324 is space debris in GEO originally from a launch on Thu, 30 May 1974 UTC launched from the Air Force Eastern Test Range (AFETR). Debris objects in space refer to the collection of defunct objects orbiting the Earth. Examples of debris include non-operational satellites, rocket bodies, and fragments generated from explosions, collisions, or faulty payload assembly.

Not visible in the next 10 days
Identifier
7324, 1974-039C
Orbit
GEO
Country
Flag of USUS
Related business
Manufacturer
Martin Marietta
Mission
Spacecraft
Bus & Motor
TRANSTAGE, Unknown motor
Mass
~1,950 kg wet, ~1,950 kg dry
Launch date (UTC)
1974-05-30 (52 years ago)
Launch vehicle
Unknown
Launch site
Air Force Eastern Test Range (AFETR)
Object type
Payload
Rocket body
Debris
Shape & HBR
Unknown
Radar Cross Section
Large (>1 m²)

Expand to show TLE details & history
Last TLE update: 21 hours ago

TLE from 21 hours ago
0 TITAN 3C TRANSTAGE R/B
1 07324U 74039C   25346.24013890  .00000102  00000-0  00000-0 0  9999
2 07324   3.2225 264.1887 0033197  75.6354   5.0126  1.00712360117745
Epoch: 2025-12-12T05:45Z
TLE epoch observation values (Epoch: 2025-12-12T05:45:48.000Z)
Latitude
3.1886°
Longitude
177.20939°
Altitude
35,524.193 km
Speed
3.089 km/s
True Right ascension
22h 59m 22s
True Declination
3° 11' 07"
Sunlit
Object was in daylight at epoch
Visualization orbit readout
Latitude
Unknown
Longitude
Unknown
Altitude
Unknown
Speed
Unknown
Apparent Right ascension
Unknown
Apparent Declination
Unknown
Sunlit
N/A
Visualization observer readout
Local Sidereal Time
00:50:29
Azimuth
Unknown
Elevation
Unknown
Doppler factor
Unknown
Orbital elements
Apogee altitude
35,804.174 km
Perigee altitude
35,525.035 km
Semi-major axis
42,042.742 km
Eccentricity
0.00332
Inclination
3.2225°
RAAN
264.1887°
Arg. of periapsis
75.6354°
True anomaly
5.04598°
Mean anomaly
5.0126°
Eccentric anomaly
5.02927°
Mean motion
0.25177 °/min
Orbital period
1,429.87 mins
BSTAR
0
Loading maneuver chart data...
Computing Atmospheric mass density...
Loading historical data...
Loading historical data...
Loading historical data...
Loading historical data...
Loading historical data...
Loading historical data...
Loading historical data...
Other satellites on launch #39 in the year 1974 (1974-05-30 UTC)

Documentation

Showing up to 5 results
|